Location: Donzy-le-Pr�
(47.3659°N, 3.1107°E)
Time: 12:09:24
(UTC+00:00)

Cosmos 2278 Rocket - Pass Details

Date: 03 March 2021
Orbit: 842 x 845 km, 71.0° (Epoch: 22 April)

Event Time Altitude Azimuth Distance (km) Brightness Sun altitude
Rises 20:22:44 0° 333° (NNW) 3,415 6.1 -28.5°
Reaches altitude 10° 20:25:12 10° 335° (NNW) 2,475 5.2 -28.9°
Enters shadow 20:30:00 63° 354° (N) 940 2.4 -29.6°
